EW0744 Weather Reports


Display with metric or nautical units.
time (UTC)temp
F
wind
direction
speed
MPH
gust
MPH
rain 1hr
in
rain 24hr
in
rain mn
in
humidity
%
barometer
mb
20260503184527 69 192 1.0 6.0 0.00 0.00 0.00 40 1035.2
20260503183030 68 198 1.0 7.0 0.00 0.00 0.00 41 1035.7
20260503181527 67 229 1.0 5.0 0.00 0.00 0.00 44 1035.9
20260503180014 66 196 2.0 6.0 0.00 0.00 0.00 43 1036.4
20260503174511 66 196 2.0 7.0 0.00 0.00 0.00 43 1036.6
20260503173022 66 205 2.0 4.0 0.00 0.00 0.00 47 1036.7
20260503171503 64 200 1.0 7.0 0.00 0.00 0.00 50 1037.1
20260503170104 63 198 2.0 8.0 0.00 0.00 0.00 51 1037.3
20260503120106 36 196 0.0 0.0 0.00 0.00 0.00 88 1037.8
20260503081529 41 196 0.0 0.0 0.00 0.00 0.00 79 1037.6
20260503071525 44 196 0.0 0.0 0.00 0.00 0.00 76 1037.8
20260503054505 48 196 0.0 0.0 0.00 0.00 0.00 69 1037.6
20260503053006 49 196 0.0 0.0 0.00 0.00 0.00 68 1037.4
20260503051506 50 196 0.0 0.0 0.00 0.00 0.00 67 1037.4
20260503050005 51 196 0.0 0.0 0.00 0.00 0.00 67 1037.3
20260503044504 51 196 0.0 1.0 0.00 0.00 0.00 65 1037.3
20260503043003 52 196 0.0 1.0 0.00 0.00 0.00 64 1037.1
20260503041503 53 196 0.0 0.0 0.00 0.00 0.00 61 1037.1
20260503040002 53 196 0.0 2.0 0.00 0.00 0.00 60 1036.9
20260503034501 54 196 0.0 3.0 0.00 0.00 0.00 59 1036.8
20260503033109 55 195 0.0 2.0 0.00 0.00 0.00 57 1036.7
20260503031600 55 202 1.0 6.0 0.00 0.00 0.00 56 1036.6
20260503024601 56 199 0.0 5.0 0.00 0.00 0.00 51 1036.3
20260503023101 57 204 0.0 5.0 0.00 0.00 0.00 50 1036.1
20260503021558 58 221 0.0 3.0 0.00 0.00 0.00 50 1035.9
20260503020111 59 218 0.0 3.0 0.00 0.00 0.00 47 1035.8
20260503014606 61 218 0.0 3.0 0.00 0.00 0.00 44 1035.5
20260503013115 62 245 0.0 4.0 0.00 0.00 0.00 43 1035.5
20260503011556 63 226 0.0 4.0 0.00 0.00 0.00 39 1035.5
20260503010055 64 210 1.0 5.0 0.00 0.00 0.00 37 1035.4
20260503004604 65 212 0.0 2.0 0.00 0.00 0.00 38 1035.4
20260503003054 65 211 0.0 8.0 0.00 0.00 0.00 36 1035.4
20260503001556 65 277 2.0 9.0 0.00 0.00 0.00 38 1035.4
20260503000057 66 196 1.0 7.0 0.00 0.01 0.00 37 1035.5
20260502234602 67 296 1.0 8.0 0.00 0.01 0.00 38 1035.4
20260502233049 67 194 1.0 8.0 0.00 0.01 0.00 38 1035.5
20260502230048 67 225 2.0 10.0 0.00 0.10 0.00 39 1035.6
20260502224547 67 188 4.0 9.0 0.00 0.10 0.00 38 1035.6
20260502223057 67 190 2.0 8.0 0.00 0.10 0.00 38 1035.7
20260502221545 65 285 1.0 7.0 0.00 0.10 0.00 40 1035.9
20260502220042 66 200 2.0 7.0 0.00 0.10 0.00 38 1036.2
20260502214550 71 199 3.0 8.0 0.00 0.10 0.00 35 1036.5
20260502213039 71 273 1.0 6.0 0.00 0.10 0.00 34 1036.6
20260502211535 70 255 1.0 6.0 0.00 0.10 0.00 35 1036.8
20260502210029 69 106 1.0 6.0 0.00 0.10 0.00 34 1037.2
20260502204536 68 133 1.0 4.0 0.00 0.10 0.00 36 1037.4
20260502203035 69 32 1.0 4.0 0.00 0.10 0.00 36 1037.8
20260502201521 68 12 0.0 4.0 0.00 0.10 0.00 40 1037.9
20260502200021 66 279 2.0 9.0 0.00 0.10 0.00 42 1038.0
20260502194523 68 325 1.0 6.0 0.00 0.10 0.00 43 1038.3
20260502193016 67 21 1.0 6.0 0.00 0.10 0.00 44 1038.4
20260502191512 64 280 1.0 4.0 0.00 0.10 0.00 46 1038.7
20260502190011 63 280 1.0 7.0 0.00 0.10 0.00 47 1038.9